Date String (YYYY-MM-DD hh:mm:ss) UTC,Instrument flags,absolute air pressure of the measurement (hPa),sample flow rate (lpm),inlet stack bypass flow (lpm),air temperature of the measurement (°C),ambient temperature measured by the external sensor (°C),aerosol sample conditioner tube jacket temperature (°C),OPC LED temperature (°C),internal box temperature (°C),relative humidity of the measurement (%),span deviation,mass concentration of particles derived from Lorenz-Mie calculation of OPC scattering (μg/m³),mass concentration of particles derived from Lorenz-Mie calculation of OPC scattering (μg/m³),mass concentration of particles derived from Lorenz-Mie calculation of OPC scattering (μg/m³)
DateTimeUTC,F1_M11,P_M11,Q1_M11,Q2_M11,T1_M11,T2_M11,T3_M11,T4_M11,T5_M11,U1_M11,ZSPAN_M11,X2_M11,X0_M11,X1_M11
2023-07-15 18:00:00,SystemResetWarning,0836.2,5.00,000.00,029.0,025.8,000.0,037.3,030.2,34.1,0000.0,0005.48,0010.52,0004.91
2023-07-15 18:01:00,SystemResetWarning,0836.2,5.00,000.00,029.0,026.2,000.0,037.3,030.3,34.8,0000.0,0005.46,0010.34,0004.92
2023-07-15 18:02:00,SystemResetWarning,0836.2,5.03,000.00,029.1,026.6,000.0,037.4,030.5,34.2,0000.7,0005.41,0010.68,0004.92
2023-07-15 18:03:00,SystemResetWarning,0836.3,4.97,000.00,029.2,026.9,000.0,037.4,030.6,33.3,0000.7,0005.42,0011.03,0004.92
2023-07-15 18:04:00,SystemResetWarning,0836.2,5.00,000.00,029.3,027.2,000.0,037.4,030.7,34.4,0000.0,0005.46,0011.52,0004.93
2023-07-15 18:05:00,SystemResetWarning,0836.3,5.02,000.00,029.4,027.5,000.0,037.5,030.7,33.5,0000.8,0005.48,0011.58,0004.93
2023-07-15 18:06:00,SystemResetWarning,0836.2,4.98,000.00,029.5,027.7,000.0,037.5,030.8,33.7,0000.4,0005.48,0011.42,0004.95
2023-07-15 18:07:00,SystemResetWarning,0836.2,5.00,000.00,029.5,027.5,000.0,037.5,030.8,32.7,-000.8,0005.49,0011.89,0004.95
2023-07-15 18:08:00,SystemResetWarning,0836.2,5.00,000.00,029.5,026.0,000.0,037.4,030.6,32.5,-001.1,0005.54,0012.78,0004.96
2023-07-15 18:09:00,SystemResetWarning,0836.2,5.00,000.00,029.5,025.1,000.0,037.4,030.4,32.5,-001.1,0005.53,0013.26,0004.96
2023-07-15 18:10:00,SystemResetWarning,0836.2,5.00,000.00,029.4,025.1,000.0,037.4,030.2,33.1,-001.1,0005.56,0013.32,0004.95
2023-07-15 18:11:00,SystemResetWarning,0836.2,5.01,000.00,029.3,025.4,000.0,037.4,030.2,33.5,-001.0,0005.60,0013.35,0004.95
2023-07-15 18:12:00,SystemResetWarning,0836.2,5.00,000.00,029.3,025.8,000.0,037.5,030.3,33.7,-000.3,0005.59,0013.31,0004.94
2023-07-15 18:13:00,SystemResetWarning,0836.2,4.99,000.00,029.3,026.3,000.0,037.5,030.4,32.5,0000.0,0005.60,0012.97,0004.92
2023-07-15 18:14:00,SystemResetWarning,0836.2,5.00,000.00,029.3,026.7,000.0,037.5,030.5,32.5,0000.0,0005.54,0012.20,0004.91
2023-07-15 18:15:00,SystemResetWarning,0836.2,5.01,000.00,029.3,027.0,000.0,037.6,030.6,33.2,0000.0,0005.49,0011.65,0004.90
2023-07-15 18:16:00,SystemResetWarning,0836.2,5.01,000.00,029.3,027.3,000.0,037.6,030.7,32.8,0000.0,0005.48,0011.63,0004.88
2023-07-15 18:17:00,SystemResetWarning,0836.2,4.99,000.00,029.4,027.6,000.0,037.6,030.7,32.3,-000.3,0005.48,0011.42,0004.87
2023-07-15 18:18:00,SystemResetWarning,0836.2,4.99,000.00,029.4,027.5,000.0,037.6,030.8,32.6,-001.3,0005.45,0010.65,0004.86
2023-07-15 18:19:00,SystemResetWarning,0836.2,4.99,000.00,029.4,026.2,000.0,037.5,030.6,32.7,-001.4,0005.42,0009.83,0004.85
2023-07-15 18:20:00,SystemResetWarning,0836.1,5.00,000.00,029.3,025.0,000.0,037.4,030.3,33.4,-001.0,0005.40,0009.14,0004.85
2023-07-15 18:21:00,SystemResetWarning,0836.1,4.99,000.00,029.2,024.9,000.0,037.3,030.2,34.8,-000.0,0005.36,0009.04,0004.84
2023-07-15 18:22:00,SystemResetWarning,0836.1,5.04,000.00,029.2,025.2,000.0,037.4,030.1,34.4,0000.0,0005.34,0009.04,0004.83
2023-07-15 18:23:00,SystemResetWarning,0836.1,4.97,000.00,029.2,025.7,000.0,037.4,030.3,32.9,0000.0,0005.40,0009.25,0004.84
2023-07-15 18:24:00,SystemResetWarning,0836.1,5.02,000.00,029.3,026.1,000.0,037.5,030.4,32.5,0000.0,0005.38,0009.80,0004.84
2023-07-15 18:25:00,SystemResetWarning,0836.1,5.00,000.00,029.4,026.6,000.0,037.5,030.5,32.5,0000.0,0005.41,0010.34,0004.84
2023-07-15 18:26:00,SystemResetWarning,0836.1,4.99,000.00,029.4,026.9,000.0,037.5,030.6,32.4,-001.1,0005.45,0010.81,0004.83
2023-07-15 18:27:00,SystemResetWarning,0836.1,5.00,000.00,029.5,027.2,000.0,037.6,030.6,32.4,0000.0,0005.47,0011.58,0004.83
2023-07-15 18:28:00,SystemResetWarning,0836.1,5.00,000.00,029.5,027.5,000.0,037.6,030.7,33.1,0000.0,0005.48,0011.99,0004.83
2023-07-15 18:29:00,SystemResetWarning,0836.1,5.00,000.00,029.6,027.7,000.0,037.6,030.8,33.1,0000.0,0005.49,0012.07,0004.83
2023-07-15 18:30:00,SystemResetWarning,0836.1,5.00,000.00,029.6,027.4,000.0,037.6,030.8,32.2,0000.0,0005.47,0012.30,0004.82
2023-07-15 18:31:00,SystemResetWarning,0836.1,5.00,000.00,029.6,025.8,000.0,037.5,030.6,32.1,0000.0,0005.50,0012.18,0004.82
2023-07-15 18:32:00,SystemResetWarning,0836.0,5.01,000.00,029.5,025.0,000.0,037.4,030.4,32.1,0000.0,0005.49,0012.60,0004.82
2023-07-15 18:33:00,SystemResetWarning,0836.0,5.02,000.00,029.4,025.0,000.0,037.4,030.2,33.2,0000.0,0005.48,0012.72,0004.82
2023-07-15 18:34:00,SystemResetWarning,0836.1,4.99,000.00,029.3,025.4,000.0,037.5,030.2,33.6,0000.0,0005.45,0012.60,0004.81
2023-07-15 18:35:00,SystemResetWarning,0836.0,5.00,000.00,029.3,025.8,000.0,037.5,030.3,33.2,0000.0,0005.49,0012.40,0004.81
2023-07-15 18:36:00,SystemResetWarning,0836.1,5.00,000.00,029.3,026.2,000.0,037.6,030.4,33.3,0000.0,0005.49,0012.89,0004.82
2023-07-15 18:37:00,SystemResetWarning,0836.1,5.00,000.00,029.3,026.6,000.0,037.6,030.5,33.6,0000.0,0005.46,0013.43,0004.82
2023-07-15 18:38:00,SystemResetWarning,0835.9,5.01,000.00,029.3,027.0,000.0,037.6,030.6,33.8,0000.0,0005.44,0013.03,0004.83
2023-07-15 18:39:00,SystemResetWarning,0836.0,5.00,000.00,029.3,027.3,000.0,037.6,030.7,33.6,0000.0,0005.44,0012.86,0004.83
2023-07-15 18:40:00,SystemResetWarning,0835.9,5.00,000.00,029.4,027.6,000.0,037.6,030.7,33.3,0000.0,0005.44,0012.65,0004.83
2023-07-15 18:41:00,SystemResetWarning,0835.9,4.99,000.00,029.4,027.8,000.0,037.7,030.8,33.4,0000.0,0005.46,0012.45,0004.84
2023-07-15 18:42:00,SystemResetWarning,0835.9,4.99,000.00,029.4,027.7,000.0,037.6,030.9,32.4,0000.0,0005.46,0012.84,0004.83
2023-07-15 18:43:00,SystemResetWarning,0835.9,5.01,000.00,029.4,026.3,000.0,037.5,030.7,32.3,0000.0,0005.49,0012.77,0004.84
2023-07-15 18:44:00,SystemResetWarning,0835.9,5.00,000.00,029.4,025.1,000.0,037.4,030.5,32.5,0000.0,0005.50,0012.91,0004.83
2023-07-15 18:45:00,SystemResetWarning,0835.9,5.00,000.00,029.3,025.0,000.0,037.4,030.3,31.9,0000.0,0005.51,0012.95,0004.83
2023-07-15 18:46:00,SystemResetWarning,0835.9,5.01,000.00,029.2,025.3,000.0,037.4,030.2,33.4,0000.0,0005.49,0012.67,0004.83
2023-07-15 18:47:00,SystemResetWarning,0835.9,5.00,000.00,029.2,025.8,000.0,037.5,030.3,32.6,-001.0,0005.49,0011.91,0004.82
2023-07-15 18:48:00,SystemResetWarning,0835.9,5.00,000.00,029.2,026.2,000.0,037.5,030.4,33.4,-001.5,0005.50,0011.05,0004.83
2023-07-15 18:49:00,SystemResetWarning,0835.9,4.99,000.00,029.2,026.6,000.0,037.5,030.5,32.8,-000.9,0005.50,0010.69,0004.82
2023-07-15 18:50:00,SystemResetWarning,0835.9,4.99,000.00,029.2,027.0,000.0,037.5,030.6,32.2,-000.5,0005.50,0010.99,0004.83
2023-07-15 18:51:00,SystemResetWarning,0835.9,5.00,000.00,029.2,027.3,000.0,037.5,030.7,33.4,-001.0,0005.50,0012.12,0004.83
2023-07-15 18:52:00,SystemResetWarning,0835.9,5.00,000.00,029.3,027.6,000.0,037.6,030.7,32.6,-000.9,0005.52,0012.57,0004.83
2023-07-15 18:53:00,SystemResetWarning,0835.8,5.00,000.00,029.3,027.7,000.0,037.6,030.8,33.1,-000.8,0005.56,0012.16,0004.86
2023-07-15 18:54:00,SystemResetWarning,0835.9,4.99,000.00,029.3,026.6,000.0,037.5,030.7,33.1,0000.0,0005.57,0011.77,0004.88
2023-07-15 18:55:00,SystemResetWarning,0835.8,5.00,000.00,029.2,025.8,000.0,037.4,030.5,33.3,0000.0,0005.59,0011.43,0004.91
2023-07-15 18:56:00,SystemResetWarning,0835.8,5.02,000.00,029.2,025.9,000.0,037.4,030.4,32.9,0000.0,0005.62,0011.72,0004.94
2023-07-15 18:57:00,SystemResetWarning,0835.8,5.00,000.00,029.1,026.1,000.0,037.4,030.4,33.2,0000.0,0005.62,0011.83,0004.96
2023-07-15 18:58:00,SystemResetWarning,0835.8,5.00,000.00,029.1,026.5,000.0,037.5,030.5,33.2,0000.0,0005.63,0011.79,0004.99
2023-07-15 18:59:00,SystemResetWarning,0835.7,5.00,000.00,029.1,026.9,000.0,037.5,030.6,33.3,0000.0,0005.63,0011.73,0005.01
